Regional Weather Roundup
Issued by NWS

Home | Current Version | Previous Version | Text Only | Print | Product List | Glossary Off
Versions: 1 2 3 4 5 6 7 8 9 10 11 12 13 14 15 16 17 18 19 20 21 22 23 24 25 26 27 28 29 30 31 32 33 34 35 36 37 38 39 40 41 42 43 44 45 46 47 48 49 50

000
ASUS45 KTFX 031919
RWRMT
MONTANA REGIONAL WEATHER ROUNDUP
NATIONAL WEATHER SERVICE GREAT FALLS MT
100 PM MDT THU SEP 03 2015

NOTE: "FAIR" INDICATES FEW OR NO CLOUDS BELOW 12000 FEET WITH NO
SIGNIFICANT WEATHER AND/OR OBSTRUCTIONS TO VISIBILITY.

MTZ001>007-043-032000-
WEST OF THE DIVIDE

CITY           SKY/WX    TMP DP  RH WIND       PRES   REMARKS
KALISPELL      CLOUDY    57  46  66 SE15      29.94S
MISSOULA       CLOUDY    52  46  80 NW5       29.98S
BUTTE          CLOUDY    54  39  57 NW5       29.96F
MULLAN PASS    PTSUNNY   42  38  85 N5        29.98F
DEER LODGE       N/A     57  39  51 W3        29.97F
EUREKA           N/A     52  45  76 W8          N/A
HAMILTON         N/A     52  45  76 N2        29.97F
LIBBY            N/A     63  39  42 CALM      29.90F
PLAINS           N/A     62  43  49 CALM      29.95F
RONAN            N/A     52  48  86 SE3       30.01F
THOMPSON FALLS   N/A     61  41  47 SE7       29.97
$$

MTZ008-052>055-032000-
SOUTHWEST MONTANA

CITY           SKY/WX    TMP DP  RH WIND       PRES   REMARKS
BOZEMAN        MOSUNNY   71  41  33 N3        29.86F
DILLON           N/A     65  39  38 N8        29.88F
W YELLOWSTONE  MOSUNNY   70  32  24 SW22G36   29.97F
THREE FORKS      N/A     70  24  17 NW7       29.88F
TWIN BRIDGES     N/A     67  37  33 N12       29.89F
$$

MTZ009-010-012-014-046-048-049-054-032000-
EAST SLOPES AND CENTRAL MONTANA

CITY           SKY/WX    TMP DP  RH WIND       PRES   REMARKS
CUT BANK       CLOUDY    53  42  66 CALM      29.95F
GREAT FALLS    CLOUDY    59  42  53 N18G25    29.92F
MALMSTROM AFB  CLOUDY    61  41  48 N20       29.92F
HELENA         CLOUDY    63  39  41 VRB5      29.90F
CONRAD           N/A     55  51  86 W7        29.98F
$$

MTZ011-013-016-021-045-047-050-051-032000-
NORTH CENTRAL MONTANA

CITY           SKY/WX    TMP DP  RH WIND       PRES   REMARKS
HAVRE          CLOUDY    67  41  38 N10       29.89F
LEWISTOWN      SUNNY     70  37  29 N10G17    29.91F
N BAR RANCH      N/A     68  37  32 NE9       29.93F
CHINOOK          N/A     66  43  42 NW5       29.88F
FORT BENTON      N/A     64  41  42 NW15      29.92F
$$

MTZ017>020-022>027-061-062-032000-
NORTHEAST MONTANA

CITY           SKY/WX    TMP DP  RH WIND       PRES   REMARKS
GLASGOW        MOSUNNY   79  42  26 N14       29.80F
JORDAN           N/A     75  41  29 N12       29.83R
SIDNEY         MOSUNNY   84  45  24 N17G23      N/A
WOLF POINT     PTSUNNY   81  44  27 NE16G26   29.76S
MALTA            N/A     75  40  28 N7        29.82F
PLENTYWOOD       N/A     75  45  33 N22       29.75F
POPLAR           N/A     79  43  27 N15G24    29.75F
SCOBEY           N/A     72  43  35 N22       29.79F
$$

MTZ028>42-056>058-032000-
SOUTHCENTRAL AND SOUTHEAST MONTANA

CITY           SKY/WX    TMP DP  RH WIND       PRES   REMARKS
BAKER          PTSUNNY   83  48  29 NW13      29.78F
BILLINGS       PTSUNNY   72  36  26 NE7       29.84F
LIVINGSTON     SUNNY     73  38  27 E22G29    29.84F
MILES CITY     CLOUDY    79  43  27 VRB7      29.78S
EKALAKA          N/A     80  43  27 NW8       29.82F
FORSYTH          N/A     79  39  24 E5        29.76F
LAUREL           N/A     73  37  26 N6        29.85F
ROUNDUP          N/A     72  34  24 NE6       29.79F
$$

REGIONAL REPORTS...DAKOTAS

CITY           SKY/WX    TMP DP  RH WIND       PRES   REMARKS
WILLISTON      SUNNY     87  57  35 N16G25    29.71F
MINOT          SUNNY     90  65  43 SE8       29.63S HX  92
DICKINSON      MOSUNNY   88  54  31 NW14      29.71S
BEACH            N/A     82  46  28 NW16G23   29.76F
CROSBY           N/A     81  48  32 NW21G29   29.74R
BISMARCK       MOSUNNY   94  61  33 S10       29.67F HX  94
GRAND FORKS    MOSUNNY   89  71  55 S24G33    29.72F HX  95
FARGO          SUNNY     91  71  51 SE21G29   29.77S HX  97
BUFFALO SD       N/A     86  46  24 NW13      29.71F
RAPID CITY     SUNNY     95  52  23 S8        29.77F HX  92
$$

REGIONAL REPORTS...WYOMING/IDAHO/WASHINGTON

CITY           SKY/WX    TMP DP  RH WIND       PRES   REMARKS
GILLETTE       PTSUNNY   83  40  21 CALM      29.87F
SHERIDAN       PTSUNNY   78  38  23 NW7       29.83F
BUFFALO WY     MOSUNNY   82  37  20 SE9       29.89F
CODY           CLOUDY    70  41  35 N6        29.87F
YELLOWSTONE LA   N/A     68  36  30 VRB6G21   30.07F
IDAHO FALLS    MOSUNNY   74  40  29 SW12      29.90F
SALMON         CLOUDY    64  43  45 N6        29.84F
BOISE          CLOUDY    63  43  48 NW16      29.93S
SPOKANE        MOSUNNY   60  34  37 SW12G17   29.95F
$$

REGIONAL REPORTS...ALBERTA

CITY           SKY/WX    TMP DP  RH WIND       PRES   REMARKS
EDMONTON       MOSUNNY   54  39  58 NW6       29.97R
CALGARY        MOSUNNY   57  39  51 E12       29.94F
LETHBRIDGE     PTSUNNY   55  41  58 SW7       29.94F
MEDICINE HAT   CLOUDY    54  48  82 N5        29.95S
WATERTON GATE    N/A     52  43  71 S2          N/A
MILK RIVER       N/A     54  48  82 S5          N/A
ONEFOUR          N/A     64  36  34 NW12        N/A
$$

REGIONAL REPORTS...SASKATCHEWAN

CITY           SKY/WX    TMP DP  RH WIND       PRES   REMARKS
SWIFT CURRENT  CLOUDY    64  39  39 N13G20    29.90F
REGINA         CLOUDY    70  46  43 N22       29.83F
SASKATOON      CLOUDY    57  46  67 NW13      29.93F
CYPRESS HILLS    N/A     57  39  51 NE3         N/A
VAL MARIE        N/A     72  36  26 NE16G22     N/A
ROCKGLEN         N/A     68  43  40 N18G25      N/A
ASSINIBOIA       N/A     59  37  44 NW10G17     N/A
$$


USA.gov is the U.S. government's official web portal to all federal, state and local government web resources and services.